1998-067PB (43553 NORAD) Tracking and Keplerian Element Data

This shows tracking and keplerian element data for the satellite.

Feedback or suggestion? Click here.




ElementValue
Catalog43553
Name1998-067PB
Epoch Orbit4461
Epoch Day115.64706287
Epoch Year2019
RAAN255.1519
Inclination51.64
Eccentricity0.0006284
Argument of Perigee301.4671
Mean Anonmoly58.5708
Mean Motion15.59496873
Decay Rate0.0001099
L11 43553U 98067PB 19115.64706287 .00010990 00000-0 14201-3 0 9997
L22 43553 51.6400 255.1519 0006284 301.4671 58.5708 15.59496873 44613

Live tracking and technical data element details for 1998-067PB (NORAD 43553). 1998-067PB can be tracked NOW for your location showing map with azimuth and elevation plus other details from your city location.

Track the satellite on the map from your city or location and see movement details for azimuth, elevation, latitude, longitude, range, height, and movement on the map or in text.







IsCatalogInMostPopularTable: catalog: 43553, numindb: 125
Update: records affected: 1



GetName: 43553 1998-067PB

Hit Count: updated at: Fri, 26 Apr 2019 15:51:38 GMT